Terminal Aerodrome Forecast
Issued by NWS St Louis, MO

Home | Current Version | Previous Version | Text Only | Print | Product List | Glossary On
Versions: 1 2 3 4 5 6 7 8 9 10 11 12 13 14 15 16 17 18 19 20 21 22 23 24
000
FTUS43 KLSX 170103 AAA
TAFCOU
TAF AMD
KCOU 170103Z 1701/1724 18010KT 6SM -SHRA VCTS BKN035CB
      TEMPO 1701/1703 VRB15G30KT 3SM TSRA BKN015CB
     FM170400 18007KT P6SM SHRA OVC020
     FM170900 24007KT P6SM BKN015
     FM171500 27008KT P6SM BKN045
     FM171800 27012KT P6SM SCT040=

USA.gov is the U.S. government's official web portal to all federal, state and local government web resources and services.